Location: Silent Lake
(44.9206°N, 78.0708°W)
Time: 13:48:07
(UTC-04:00)

Cosmos 405 - Pass Details

Date: 19 April 2018
Orbit: 455 x 471 km, 81.3° (Epoch: 27 May)

Event Time Altitude Azimuth Distance (km) Brightness Sun altitude
Rises 21:39:41 0° 359° (N) 2,496 7.2 -16.2°
Reaches altitude 10° 21:41:58 10° 11° (N) 1,613 6.0 -16.5°
Maximum altitude 21:45:05 29° 73° (ENE) 867 4.0 -16.9°
Enters shadow 21:45:10 29° 76° (ENE) 867 4.0 -16.9°
